Location: Kawakawa
(35.3830°S, 174.0670°E)
Time: 01:42:25
(UTC+13:00)

Altair - Pass Details

Date: 06 December 2019
Orbit: 1502 x 1682 km, 47.2° (Epoch: 19 January)

Event Time Altitude Azimuth Distance (km) Brightness Sun altitude
Rises 12:54:02 0° 280° (W) 4,827 10.1 76.3°
Reaches altitude 10° 12:57:16 10° 274° (W) 3,868 9.7 76.5°
Maximum altitude 13:06:55 52° 199° (SSW) 2,008 8.8 76.9°
Drops below altitude 10° 13:16:50 10° 124° (ESE) 3,964 9.7 77.0°
Sets 13:20:12 0° 118° (ESE) 4,954 10.1 77.0°
